Vertical_Velocity
-1 -0 0 1 1 0 -0 1 -1 -2 -1 -0 -0 -3 -3 -0 0 -1 -0 -0 0 -0 -1 0 -0 -2 -1 -1 -1 -1 -1 -0 1 -0 -1 0 -1 0 -1 -2 2 -3 -1
-0 0 -1 1 2 1 1 2 1 2 0 0 -1 -1 -0 -1 -0 -0 0 -1 1 1 -0 -0 -1 -0 -1 -1 -0 -1 -1 -1 1 0 -1 -3 -0 -1 2 -0 -0 0 3
-1 -0 2 1 1 -0 0 2 3 1 2 1 2 3 -1 -1 -0 -1 -0 -2 -2 -0 -1 -1 -0 -1 -2 -0 0 -1 -0 -2 0 -1 -1 -1 -0 -1 1 1 -1 4 -3
-1 -2 -0 0 -1 -1 1 1 0 1 4 3 -0 -0 -1 -3 3 2 3 1 -1 -1 -2 -2 -0 0 -1 1 2 1 -1 -2 -2 1 -1 -2 -1 -1 -0 1 -3 -3 4
-3 -1 -1 -2 -0 0 -1 -2 -1 -0 0 1 1 2 2 1 1 -1 -1 -1 4 3 -0 0 0 -2 -2 -1 -1 1 0 -2 1 -1 -1 2 1 -1 1 2 1 1 -2
-2 1 -3 -1 0 1 1 1 2 1 1 -1 2 2 0 1 2 2 2 -1 -1 2 1 2 1 -0 -0 1 1 1 -1 3 2 4 2 1 7 3 0 2 2 1 3
1 -0 1 -0 1 2 -1 0 -1 -2 -3 1 -0 -1 0 -0 4 2 -1 0 1 -1 -0 -0 2 -0 0 -2 2 -2 -1 0 1 1 2 3 3 1 -0 1 0 1 -1
-2 -2 1 -2 -0 1 3 2 -4 22 -1 1 0 1 2 1 -0 1 2 -1 -1 -1 2 2 1 -1 -1 -1 -0 1 -1 5 -1 -2 -4 -4 -2 -2 -1 -1 -1 -1 0
3 3 3 -2 21 0 1 -0 4 1 1 1 1 1 -1 -0 -2 -1 1 2 1 1 0 -1 1 -0 -1 0 1 -2 -2 1 -1 -2 -1 -1 -1 -1 -1 -0 -2 -2 -2
4 17 3 -2 13 40 -0 1 2 3 15 -2 8 -3 -1 -2 -2 -1 0 -2 0 0 -1 -0 -1 -1 1 -2 -0 -1 -1 -2 0 1 1 -1 0 3 1 1 -2 -2 -4
13 10 8 1 2 -5 2 -2 3 0 -3 2 -0 6 6 6 -1 -1 -0 0 -2 -3 3 -2 0 -1 -1 -1 3 3 1 -0 1 1 0 1 1 0 0 -1 -2 -1 -1
3 9 -2 7 7 1 -5 -4 -4 -5 -4 2 3 -4 -3 3 2 1 1 -1 -1 0 -0 1 0 -3 -3 1 0 5 0 3 1 -1 6 10 8 6 4 2 -1 -1 -2
4 -1 -0 0 -3 -5 2 1 16 0 8 17 -1 2 -1 8 11 16 8 4 4 1 -3 3 2 0 5 3 16 6 3 0 3 5 5 2 1 4 1 -2 -3 -1 -2
-1 -4 -1 1 1 -1 -4 -3 1 6 -1 1 -1 5 12 8 0 17 17 12 11 3 9 12 12 16 23 10 8 9 5 5 2 2 1 -2 0 -4 -4 -3 -4 -3 -0
-2 -2 -2 -4 -4 -3 -2 -3 -4 -7 -7 -2 -4 1 11 6 -0 -3 -8 -11 -1 2 -4 -6 -6 -0 -1 8 2 -4 -6 3 -2 -4 -0 3 3 3 4 0 2 -1 -2
-1 -2 -1 -2 0 2 -2 -2 1 -1 0 2 3 -3 0 -4 0 3 -13 13 7 2 1 0 -0 2 7 7 3 -1 -2 1 0 -2 -3 -5 -6 -2 -1 -3 -1 1 -10
3 2 0 -4 1 0 -2 -2 1 -6 -8 -5 13 -1 5 17 16 9 18 -7 1 15 2 16 6 1 1 -2 0 3 2 -2 2 2 7 4 1 3 1 2 -4 -4 6
1 0 2 2 1 1 -1 -2 0 -1 -4 -0 3 -4 -1 1 -5 10 3 -1 -0 4 -3 3 3 -4 1 0 -2 -2 7 -0 -2 -2 -1 1 1 -0 0 -0 -4 4 4
-3 -4 2 2 -3 -0 1 0 -0 2 2 -3 -3 -3 -1 3 0 -3 2 2 -1 -1 -2 -1 0 0 1 3 1 9 -0 1 -1 3 1 1 2 -0 2 1 3 3 -3
2 -3 -5 -5 -1 -1 4 -2 0 0 -1 2 -0 3 2 3 4 1 -1 -1 5 1 2 3 2 -2 1 2 3 2 0 5 1 -2 2 2 -1 -3 -1 1 -1 3 0
-3 -1 2 2 0 -3 -8 -2 3 1 4 -5 -1 -2 -7 -2 2 -1 0 -2 -2 1 -1 1 -2 0 -0 -2 1 -2 -2 1 0 -2 -1 0 2 -0 2 -1 -1 1 -1
-0 -0 -0 0 -0 1 -1 2 2 -3 -4 -4 -5 -5 -2 1 -5 -3 -4 -1 3 -1 -1 -1 0 0 -4 -1 2 -1 3 3 1 2 -3 3 3 -1 1 3 -2 1 2
-2 -1 -1 -1 -2 -1 -3 -3 -1 2 0 -3 -1 -0 -2 -3 -1 -1 -2 -3 -3 -2 -1 0 2 -2 1 -1 3 3 -1 -3 1 1 -0 -3 -2 -0 -3 2 -1 -6 0
-3 -3 -3 -3 -3 -2 -1 -1 -0 0 1 2 1 -0 -0 -3 -2 -4 -2 -4 -3 -3 -2 2 -1 -2 1 1 0 -2 -1 -2 -3 -0 2 -4 -2 2 6 -1 -4 0 -1
-2 -0 1 2 1 0 1 0 -1 -1 0 1 0 -1 -1 -2 -2 -3 -1 -2 0 -3 -3 -0 0 2 -1 -2 -1 -4 -1 1 -0 -3 -1 -1 -2 0 1 -3 1 1 2
-2 -2 -3 -3 -3 -2 -1 -2 -3 -2 -1 -0 -0 -1 -0 -3 -4 -3 -1 -3 -4 -4 -2 -1 -3 -1 1 0 -3 -2 -1 1 1 1 -1 1 2 -1 0 1 1 -3 0
Height
5915 5918 5921 5924 5926 5928 5930 5932 5933 5935 5937 5940 5941 5943 5944 5945 5946 5947 5947 5948 5948 5949 5949 5950 5951 5952 5952 5952 5952 5951 5951 5950 5950 5949 5948 5947 5947 5947 5946 5946 5946 5943 5941
5910 5914 5918 5921 5923 5925 5927 5930 5932 5932 5935 5936 5938 5940 5941 5942 5943 5944 5945 5946 5946 5947 5947 5948 5949 5949 5949 5949 5949 5949 5948 5948 5947 5947 5946 5945 5945 5945 5944 5943 5943 5941 5939
5906 5909 5913 5917 5919 5921 5924 5926 5928 5930 5932 5933 5935 5936 5937 5939 5940 5940 5941 5942 5943 5944 5944 5945 5945 5946 5945 5945 5945 5945 5945 5944 5944 5943 5943 5942 5941 5940 5940 5939 5938 5939 5936
5901 5904 5908 5911 5913 5916 5919 5922 5924 5926 5928 5929 5931 5932 5934 5935 5936 5937 5938 5939 5940 5941 5941 5941 5941 5942 5942 5942 5941 5941 5941 5940 5940 5939 5939 5939 5937 5936 5936 5935 5934 5932 5932
5894 5898 5901 5904 5906 5910 5913 5916 5918 5920 5922 5924 5926 5927 5929 5930 5932 5933 5935 5935 5936 5937 5936 5937 5937 5937 5937 5937 5937 5937 5936 5935 5935 5934 5933 5933 5932 5930 5929 5930 5930 5928 5926
5888 5892 5894 5899 5902 5905 5908 5911 5913 5915 5917 5919 5921 5922 5924 5925 5926 5927 5928 5929 5931 5931 5931 5931 5931 5931 5931 5932 5931 5930 5929 5929 5928 5929 5927 5926 5925 5924 5923 5921 5922 5921 5919
5883 5886 5891 5895 5899 5900 5902 5904 5906 5908 5910 5913 5915 5916 5917 5918 5920 5921 5921 5922 5924 5925 5926 5925 5925 5925 5925 5924 5925 5924 5924 5922 5922 5922 5921 5920 5919 5917 5915 5914 5913 5912 5911
5874 5879 5883 5887 5889 5893 5896 5898 5900 5899 5903 5904 5906 5908 5909 5910 5912 5913 5915 5916 5916 5917 5917 5918 5918 5919 5919 5918 5917 5917 5917 5917 5916 5916 5914 5914 5912 5910 5908 5906 5904 5901 5900
5865 5869 5873 5877 5882 5883 5887 5888 5891 5891 5892 5893 5896 5898 5900 5901 5901 5903 5905 5907 5908 5908 5909 5909 5910 5909 5910 5910 5910 5910 5910 5909 5908 5907 5905 5904 5903 5903 5901 5898 5897 5895 5892
5857 5861 5864 5866 5869 5872 5875 5878 5880 5881 5879 5881 5884 5886 5888 5890 5892 5892 5895 5896 5898 5899 5899 5899 5900 5901 5901 5901 5900 5900 5899 5898 5897 5896 5895 5895 5894 5892 5891 5890 5888 5886 5883
5846 5852 5857 5859 5860 5862 5865 5866 5868 5870 5870 5869 5871 5875 5877 5879 5882 5882 5883 5885 5887 5888 5890 5889 5890 5890 5889 5889 5889 5888 5888 5887 5886 5885 5884 5883 5882 5881 5880 5878 5876 5874 5872
5840 5845 5846 5850 5852 5854 5854 5859 5860 5859 5860 5859 5860 5862 5863 5865 5869 5872 5872 5873 5875 5877 5878 5878 5878 5877 5876 5877 5877 5875 5875 5875 5873 5871 5870 5871 5868 5867 5867 5865 5865 5863 5860
5836 5838 5840 5842 5843 5844 5845 5846 5846 5848 5849 5847 5847 5849 5851 5854 5856 5858 5859 5862 5863 5865 5864 5866 5866 5866 5866 5863 5863 5862 5860 5859 5860 5858 5856 5856 5855 5853 5854 5855 5853 5850 5847
5829 5831 5833 5835 5835 5834 5833 5836 5838 5839 5838 5839 5837 5838 5840 5842 5843 5847 5847 5847 5849 5851 5852 5853 5853 5853 5853 5851 5848 5848 5848 5848 5848 5846 5846 5844 5842 5841 5840 5839 5840 5838 5836
5821 5822 5824 5825 5826 5827 5827 5828 5826 5827 5830 5831 5830 5829 5830 5831 5833 5834 5836 5839 5839 5840 5842 5843 5843 5842 5840 5840 5839 5840 5839 5839 5839 5837 5835 5834 5832 5831 5830 5828 5826 5826 5825
5812 5813 5814 5816 5818 5819 5819 5819 5820 5821 5820 5823 5824 5825 5825 5824 5828 5827 5828 5829 5830 5831 5831 5831 5832 5832 5830 5828 5828 5830 5829 5829 5828 5827 5825 5823 5822 5821 5819 5818 5816 5813 5811
5802 5805 5806 5808 5808 5810 5811 5811 5813 5812 5812 5813 5817 5818 5817 5821 5821 5821 5821 5822 5821 5821 5821 5820 5820 5820 5820 5819 5818 5817 5816 5815 5816 5816 5813 5809 5808 5808 5807 5804 5802 5798 5795
5791 5793 5796 5798 5799 5800 5801 5802 5802 5803 5804 5805 5804 5806 5806 5809 5812 5810 5811 5812 5811 5809 5810 5809 5806 5806 5806 5806 5806 5806 5805 5801 5801 5800 5797 5795 5793 5791 5789 5787 5785 5781 5779
5783 5783 5784 5785 5787 5788 5790 5791 5791 5792 5793 5795 5796 5796 5796 5796 5797 5798 5798 5798 5798 5799 5798 5796 5795 5794 5794 5794 5792 5790 5789 5788 5788 5787 5783 5781 5778 5775 5773 5770 5767 5764 5761
5772 5774 5776 5777 5777 5777 5778 5781 5782 5782 5783 5783 5785 5785 5785 5785 5785 5785 5785 5785 5785 5784 5783 5783 5782 5781 5779 5778 5776 5775 5773 5772 5771 5769 5768 5765 5762 5759 5757 5755 5752 5749 5745
5763 5762 5763 5763 5765 5767 5768 5769 5769 5770 5771 5771 5773 5773 5774 5773 5772 5772 5772 5772 5770 5768 5768 5767 5766 5765 5764 5763 5761 5760 5758 5757 5755 5753 5751 5749 5746 5744 5742 5739 5737 5735 5731
5755 5755 5755 5755 5755 5755 5756 5756 5757 5758 5758 5758 5758 5759 5759 5758 5758 5758 5757 5757 5756 5755 5754 5753 5751 5750 5750 5748 5746 5745 5743 5741 5740 5738 5737 5735 5733 5731 5727 5725 5722 5721 5717
5747 5748 5748 5747 5747 5747 5746 5746 5746 5746 5746 5746 5746 5746 5745 5745 5745 5745 5744 5744 5743 5741 5740 5739 5737 5736 5735 5734 5732 5731 5729 5728 5726 5725 5723 5721 5720 5718 5714 5711 5708 5707 5703
5739 5738 5738 5738 5738 5737 5737 5737 5737 5736 5735 5735 5735 5734 5734 5734 5733 5732 5732 5731 5729 5727 5726 5724 5722 5722 5721 5719 5717 5716 5715 5714 5713 5711 5709 5707 5705 5703 5700 5697 5696 5692 5689
5733 5732 5732 5731 5730 5730 5729 5728 5728 5727 5726 5725 5724 5723 5722 5722 5721 5720 5719 5718 5717 5715 5714 5713 5710 5710 5708 5706 5704 5702 5702 5700 5698 5696 5694 5693 5692 5690 5687 5685 5681 5680 5676
5724 5724 5723 5722 5721 5721 5719 5719 5718 5717 5716 5715 5714 5713 5712 5711 5710 5708 5707 5705 5704 5702 5701 5700 5698 5696 5694 5692 5690 5689 5687 5686 5684 5683 5681 5680 5678 5676 5674 5672 5670 5667 5664